Find Apstar 7

NORAD ID: 38107 Int'l Des: 2012-013 Owner: APT Country: HK operational
HEOCIRCULARGSOGEO

Live Position

Loading 3D Globe...

About Apstar 7

Description loading...

Upcoming Passes

Passes for default location (London). Set your location on the main map for personalized predictions.

Altitude History

Loading altitude history...

Two-Line Element Set

1 38107U 12013A 26109.16513238 -.00000098 00000-0 00000+0 0 9990
2 38107 0.0109 227.3666 0002780 179.4232 296.4333 1.00271173 51219
Epoch: Apr 19, 2026 • Age: 46 hours

Current Status

Altitude 35787.4 km
Velocity 3.07 km/s
Sub-Earth Point 0.03°N, 76.47°E
Launch Date Mar 31, 2012
Age 14 years
Type other

Technical Details

Classification Payload
Mass 5054.00 kg
Dry Mass 2500.00 kg
Total Mass 5054.00 kg
Length 5.00 m
Diameter 2.50 m
Span 30.00 m
Shape Box + 2 Pan
Manufacturer THALES
Bus Type Spacebus 4000C2
Phase Status In Orbit
Owner/State APT/HK

Most Searched